TimeEST,TemperatureF,Dew PointF,Humidity,Sea Level PressureIn,VisibilityMPH,Wind Direction,Wind SpeedMPH,Gust SpeedMPH,PrecipitationIn,Events,Conditions,WindDirDegrees,DateUTC
12:51 AM,42.1,32.0,67,30.16,10.0,North,4.6,-,N/A,,Overcast,10,2012-12-12 05:51:00
1:51 AM,42.1,32.0,67,30.16,10.0,NNE,4.6,-,0.00,,Overcast,30,2012-12-12 06:51:00
2:51 AM,42.1,32.0,67,30.14,10.0,NE,4.6,-,N/A,,Clear,50,2012-12-12 07:51:00
3:51 AM,42.1,32.0,67,30.14,10.0,Calm,Calm,-,N/A,,Clear,0,2012-12-12 08:51:00
4:51 AM,42.1,32.0,67,30.14,10.0,Calm,Calm,-,N/A,,Partly Cloudy,0,2012-12-12 09:51:00
5:51 AM,41.0,32.0,70,30.14,10.0,North,5.8,-,N/A,,Clear,10,2012-12-12 10:51:00
6:51 AM,41.0,32.0,70,30.14,10.0,NNE,4.6,-,N/A,,Mostly Cloudy,20,2012-12-12 11:51:00
7:51 AM,41.0,32.0,70,30.17,10.0,Calm,Calm,-,N/A,,Overcast,0,2012-12-12 12:51:00
8:51 AM,42.1,33.1,70,30.18,10.0,East,5.8,-,N/A,,Overcast,80,2012-12-12 13:51:00
9:51 AM,43.0,34.0,71,30.19,10.0,East,6.9,-,N/A,,Scattered Clouds,90,2012-12-12 14:51:00
10:51 AM,45.0,35.1,68,30.19,10.0,East,4.6,-,N/A,,Mostly Cloudy,80,2012-12-12 15:51:00
11:51 AM,46.9,36.0,66,30.19,10.0,Variable,3.5,-,N/A,,Mostly Cloudy,0,2012-12-12 16:51:00
12:51 PM,48.9,37.0,64,30.17,10.0,Calm,Calm,-,N/A,,Scattered Clouds,0,2012-12-12 17:51:00
1:51 PM,50.0,37.9,63,30.16,10.0,Calm,Calm,-,N/A,,Scattered Clouds,0,2012-12-12 18:51:00
2:51 PM,51.8,37.4,58,30.16,10.0,Variable,3.5,-,N/A,,Scattered Clouds,0,2012-12-12 19:51:00
3:51 PM,53.1,39.0,59,30.15,10.0,NNE,4.6,-,N/A,,Mostly Cloudy,20,2012-12-12 20:51:00
4:51 PM,52.0,39.0,61,30.16,10.0,NNE,5.8,-,N/A,,Overcast,20,2012-12-12 21:51:00
5:51 PM,52.0,39.0,61,30.17,10.0,NNE,4.6,-,0.00,,Overcast,30,2012-12-12 22:51:00
6:51 PM,51.1,39.9,66,30.19,10.0,NE,4.6,-,N/A,,Overcast,40,2012-12-12 23:51:00
7:51 PM,51.1,39.9,66,30.22,10.0,NNE,5.8,-,N/A,,Overcast,30,2012-12-13 00:51:00
8:51 PM,48.0,42.1,80,30.21,10.0,ENE,3.5,-,0.02,Rain,Light Rain,60,2012-12-13 01:51:00
9:51 PM,46.0,42.1,86,30.21,10.0,ENE,3.5,-,N/A,,Clear,70,2012-12-13 02:51:00
10:51 PM,45.0,41.0,86,30.22,10.0,NNE,4.6,-,N/A,,Clear,30,2012-12-13 03:51:00
11:51 PM,45.0,39.9,82,30.22,10.0,NE,3.5,-,N/A,,Clear,40,2012-12-13 04:51:00